Voltar ao catálogo

STARLINK-36592

AtivoComunicaçõesVLEO
NORAD 68007·PAYLOAD·🇺🇸 United States

Lançado Feb 27, 2026 de Vandenberg Space Force Base

Loading…

Próximas Passagens (próximas 24 horas)

TLE

AtualizadoSource: CelesTrak SupGP

Época: Sep 14, 2026, 21:34 UTC

1 68007C 26039X   26257.89909722  .00050421  00000+0  18262-2 0  2578
2 68007  43.0030  60.4334 0001767 273.1133 308.8434 15.27553269    10

Acompanhe STARLINK-36592 em tempo real com AllMySat

Download on the App Store